الصفحة الرئيسية
METAR-TAF:

METAR-TAF

مطار :

Municipal_Airport

سوكورو, نيومكسيكو, الولايات المتحدة

دائرة عرض: 34-01N, خط طول: 106-54W, ارتفاع: 1478 متر

مراقبة الطقس الحالي

تاريخ ووقت الإصدار 22 دقيقة قبل الساعة 02:55UTC
ريح 9 عقدة من الجنوب
درجة الحرارة 18°درجة مئوية
الرطوبة 32%
ضغط 1018 hPa
الرؤية: 16.1 كم
سماء صافية

METAR: KONM 140255Z AUTO 17009KT 10SM CLR 18/01 A3006 RMK AO2 T01770005

زمن: 21:17 (03:17 UTC)


TAF: مفقودة

أرصاد الطقس والتوقعات من أكثر من 4000 مطار (تقارير الطقس للمطار METAR والتنبؤ بالطقس بالمطارTAF).

المحطات المتاحة هي النقط الصفراء والحمراء على الخريطة.

حرك المؤشر فوق النقطة لمعرفة اسم المحطة.

ثم انقر لمعرفة أرصاد وتوقعات الطقس.

لتغيير الخارطة: اضغط على الأزرار الخضراء مع رمز الصليب الأسود للتكبير. على الزر الأخضر مع شرطة للتصغير، أو على الأسهم الخضراء للخرائط المجاورة.


METAR-TAF: